Regional Weather Roundup
Issued by NWS

Home | Current Version | Previous Version | Text Only | Print | Product List | Glossary Off
Versions: 1 2 3 4 5 6 7 8 9 10 11 12 13 14 15 16 17 18 19 20 21 22 23 24 25 26 27 28 29 30 31 32 33 34 35 36 37 38 39 40 41 42 43 44 45 46 47 48 49 50

000
ASUS43 KFSD 170102
RWRSD

WEATHER ROUNDUP FOR SOUTH DAKOTA
NATIONAL WEATHER SERVICE SIOUX FALLS SD
700 PM CST MON JAN 16 2017

NOTE: "FAIR" INDICATES FEW OR NO CLOUDS BELOW 12,000 FEET WITH NO
SIGNIFICANT WEATHER AND/OR OBSTRUCTIONS TO VISIBILITY.


SDZ001>005-009-010-012>017-170200-
NORTHWEST AND NORTH CENTRAL SOUTH DAKOTA

CITY           SKY/WX    TMP DP  RH WIND       PRES   REMARKS
BUFFALO          N/A     18  11  74 W10       30.02F WCI   6
FAITH            N/A     19  14  81 NW16      30.08S WCI   4
MOBRIDGE       CLOUDY    11   6  81 N6        30.06R WCI   1
$$

SDZ012>016-024>037-041>051-057-063-072>074-170200-
SOUTHWEST AND SOUTH CENTRAL SOUTH DAKOTA

CITY           SKY/WX    TMP DP  RH WIND       PRES   REMARKS
RAPID CTY ARPT CLOUDY    27  16  63 NW21      30.09R WCI  13
PIERRE         CLOUDY    18  12  77 NW7       30.08R WCI   9
CUSTER         CLOUDY    29   8  41 CALM      30.05R
ELLSWORTH AFB  CLOUDY    30  16  55 NW17      30.08R WCI  18
PHILIP         CLOUDY    21  15  78 NW14      30.10R WCI   8
PINE RIDGE     CLOUDY    20  16  84 CALM      30.10R
SPEARFISH      FAIR      27  14  59 W9        30.10S WCI  17
WINNER         FAIR      21  14  74 NW7       30.08R WCI  12
$$

SDZ004>011-016>023-039-040-170200-
NORTHEAST SOUTH DAKOTA

CITY           SKY/WX    TMP DP  RH WIND       PRES   REMARKS
ABERDEEN       CLOUDY     7   2  80 W3        30.07S
WATERTOWN      CLOUDY    13  11  92 N6        30.00S FOG     WCI   4
BROOKINGS      CLOUDY    20  17  88 N6        30.00R WCI  12
SISSETON         N/A     13  10  88 N5        30.04F WCI   5
$$

SDZ017-020-022-023-036>040-048>070-170200-
SOUTHEAST SOUTH DAKOTA

CITY           SKY/WX    TMP DP  RH WIND       PRES   REMARKS
SIOUX FALLS    FRZ RAIN  31  29  92 N9        29.99S WCI  23
HURON          CLOUDY    10   7  87 NW8       30.06S WCI  -2
CHAMBERLAIN    CLOUDY    18  14  83 NW9       30.08S WCI   7
MITCHELL       CLOUDY    19  13  77 NW13      30.06S WCI   6
YANKTON        CLOUDY    28  23  80 CALM      30.00S
$$

ABBREVIATIONS USED IN REMARKS
   TC - TEMPERATURE IN CELSIUS
  WCI - WIND CHILL INDEX
   HX - HEAT INDEX
  VSB - VISIBILITY





USA.gov is the U.S. government's official web portal to all federal, state and local government web resources and services.